CENTISPACE-1 S10 (62579 NORAD) Tracking and Keplerian Element Data

This shows tracking and keplerian element data for the satellite.

Feedback or suggestion? Click here.




ElementValue
Catalog62579
NameCENTISPACE-1 S10
Epoch Orbit315
Epoch Day34.52135311
Epoch Year2025
RAAN40.979
Inclination54.9839
Eccentricity0.0010493
Argument of Perigee341.8834
Mean Anonmoly18.179
Mean Motion14.75456284
Decay Rate3.719E-05
L11 62579U 25007E 25034.52135311 .00003719 00000+0 57281-3 0 9993
L22 62579 54.9839 40.9790 0010493 341.8834 18.1790 14.75456284 3157



Live tracking and technical data element details for CENTISPACE-1 S10 (NORAD 62579). CENTISPACE-1 S10 can be tracked NOW for your location showing map with azimuth and elevation plus other details from your city location.







IsCatalogInMostPopularTable: catalog: 62579, numindb: 7
Update: records affected: 1



GetName: 62579 CENTISPACE-1 S10

Hit Count: updated at: Sun, 18 May 2025 22:28:20 GMT